This demonstration page uses our WeatherBlox Daily Observations layout. Learn more.

Left ArrowRight Arrow

38.83388, -104.82136

Hourly Observations for January 11, 2021

Temp ( °F °C ) Dew Point ( °F °C ) Humidity (%) Winds ( mph kmh ) Pressure ( in mb ) Visibility ( mi km ) Precip ( " mm )
12:56 am 00:56 Clear 24 -4.3 12 -11 60 60 Calm 30.01 1016 10 16 0.00 0.00
1:56 am 01:56 Clear 24 -4.5 12 -11.3 59 59 WNW 5 7 30.03 1017 10 16 0.00 0.00
2:56 am 02:56 Clear 26 -3.4 10 -12.3 51 51 WNW 9 15 30.03 1017 10 16 0.00 0.00
3:56 am 03:56 Clear 26 -3.1 8 -13.3 46 46 WNW 7 11 30.01 1016 10 16 0.00 0.00
4:56 am 04:56 Clear 26 -3.1 7 -14.1 43 43 NW 7 11 30.03 1017 10 16 0.00 0.00
5:56 am 05:56 Clear 25 -3.9 4 -15.5 40 40 Calm 30.05 1018 10 16 0.00 0.00
6:56 am 06:56 Clear 24 -4.4 5 -15.2 43 43 W 3 6 30.05 1018 10 16 0.00 0.00
7:56 am 07:56 Sunny 27 -2.7 4 -15.7 36 36 Calm 30.05 1018 10 16 0.00 0.00
8:56 am 08:56 Sunny 33 0.3 0 -18 24 24 Calm 30.05 1018 10 16 0.00 0.00
9:56 am 09:56 Sunny 33 0.7 8 -13.2 35 35 ESE 3 6 30.03 1017 10 16 0.00 0.00
10:56 am 10:56 Sunny 35 1.7 13 -10.7 40 40 Calm 30.00 1016 10 16 0.00 0.00
11:56 am 11:56 Sunny 35 1.9 9 -12.7 33 33 Calm 29.98 1015 10 16 0.00 0.00
12:56 pm 12:56 Sunny 37 2.7 13 -10.4 38 38 ESE 3 6 29.94 1014 10 16 0.00 0.00
1:56 pm 13:56 Sunny 37 2.9 14 -10.1 38 38 ESE 3 6 29.94 1014 10 16 0.00 0.00
2:58 pm 14:58 Sunny 35 1.8 11 -11.9 36 36 SE 3 6 30.12 1020 10 16 0.00 0.00
3:58 pm 15:58 Sunny 31 -0.7 13 -10.7 47 47 Calm 30.18 1022 10 16 0.00 0.00
4:58 pm 16:58 Sunny 30 -0.9 13 -10.3 49 49 Calm 30.18 1022 10 16 0.00 0.00
5:58 pm 17:58 Clear 28 -2 11 -11.5 49 49 Calm 30.22 1023 10 16 0.00 0.00
6:58 pm 18:58 Clear 28 -2.5 10 -12.5 47 47 NW 6 9 30.24 1024 10 16 0.00 0.00
7:58 pm 19:58 Clear 28 -2 9 -12.6 45 45 Calm 30.24 1024 10 16 0.00 0.00
8:58 pm 20:58 Clear 32 0 3 -15.9 29 29 NW 8 13 30.18 1022 10 16 0.00 0.00
9:58 pm 21:58 Clear 35 1.7 -4 -19.8 19 19 NW 12 19 30.15 1021 10 16 0.00 0.00
10:58 pm 22:58 Clear 31 -0.3 -1 -18.4 24 24 Calm 30.21 1023 10 16 0.00 0.00
11:58 pm 23:58 Clear 35 1.9 -7 -21.6 16 16 S 8 13 30.13 1020 10 16 0.00 0.00

Powered by AerisWeather